Time,TemperatureF,DewpointF,PressureIn,WindDirection,WindDirectionDegrees,WindSpeedMPH,WindSpeedGustMPH,Humidity,HourlyPrecipIn,Conditions,Clouds,dailyrainin,SoftwareType,DateUTC
2013-10-30 00:02:00,22.4,18.0,30.04,West,264,1.0,1.0,83,0.00,,,0.00,Wunderground v.1.15,2013-10-30 06:02:00,
2013-10-30 00:07:00,22.4,18.0,30.04,West,262,1.0,1.0,83,0.00,,,0.00,Wunderground v.1.15,2013-10-30 06:07:00,
2013-10-30 00:11:00,22.4,18.3,30.03,West,262,1.0,1.0,84,0.00,,,0.00,Wunderground v.1.15,2013-10-30 06:11:00,
2013-10-30 00:17:00,22.5,18.4,30.03,SW,214,1.0,1.0,84,0.00,,,0.00,Wunderground v.1.15,2013-10-30 06:17:00,
2013-10-30 00:22:00,22.5,18.4,30.03,West,271,1.0,1.0,84,0.00,,,0.00,Wunderground v.1.15,2013-10-30 06:22:00,
2013-10-30 00:27:00,22.7,18.6,30.03,WSW,258,1.0,1.0,84,0.00,,,0.00,Wunderground v.1.15,2013-10-30 06:27:00,
2013-10-30 00:32:00,22.4,18.3,30.03,WSW,258,0.0,0.0,84,0.00,,,0.00,Wunderground v.1.15,2013-10-30 06:32:00,
2013-10-30 00:37:00,22.3,18.2,30.03,West,259,0.0,0.0,84,0.00,,,0.00,Wunderground v.1.15,2013-10-30 06:37:00,
2013-10-30 00:42:00,22.3,18.2,30.03,WSW,257,0.0,0.0,84,0.00,,,0.00,Wunderground v.1.15,2013-10-30 06:42:00,
2013-10-30 00:47:00,22.1,18.0,30.02,SE,126,0.0,0.0,84,0.00,,,0.00,Wunderground v.1.15,2013-10-30 06:47:00,
2013-10-30 00:57:00,21.6,17.8,30.02,East,100,0.0,0.0,85,0.00,,,0.00,Wunderground v.1.15,2013-10-30 06:57:00,
2013-10-30 01:02:00,21.4,17.6,30.03,East,100,0.0,0.0,85,0.00,,,0.00,Wunderground v.1.15,2013-10-30 07:02:00,
2013-10-30 01:07:00,21.3,17.8,30.03,East,101,0.0,0.0,86,0.00,,,0.00,Wunderground v.1.15,2013-10-30 07:07:00,
2013-10-30 01:12:00,21.1,17.6,30.03,SE,141,0.0,1.0,86,0.00,,,0.00,Wunderground v.1.15,2013-10-30 07:12:00,
2013-10-30 01:17:00,21.0,17.5,30.03,SSE,148,0.0,1.0,86,0.00,,,0.00,Wunderground v.1.15,2013-10-30 07:17:00,
2013-10-30 01:22:00,21.4,17.9,30.03,SE,124,0.0,0.0,86,0.00,,,0.00,Wunderground v.1.15,2013-10-30 07:22:00,
2013-10-30 01:27:00,21.9,18.1,30.03,ESE,117,0.0,1.0,85,0.00,,,0.00,Wunderground v.1.15,2013-10-30 07:27:00,
2013-10-30 01:37:00,22.6,18.2,30.02,East,83,1.0,1.0,83,0.00,,,0.00,Wunderground v.1.15,2013-10-30 07:37:00,
2013-10-30 01:42:00,22.6,18.2,30.03,East,82,0.0,0.0,83,0.00,,,0.00,Wunderground v.1.15,2013-10-30 07:42:00,
2013-10-30 01:47:00,22.3,17.9,30.03,East,82,0.0,0.0,83,0.00,,,0.00,Wunderground v.1.15,2013-10-30 07:47:00,
2013-10-30 01:52:00,21.8,17.4,30.03,ESE,102,0.0,0.0,83,0.00,,,0.00,Wunderground v.1.15,2013-10-30 07:52:00,
2013-10-30 01:57:00,21.4,17.3,30.03,East,79,0.0,0.0,84,0.00,,,0.00,Wunderground v.1.15,2013-10-30 07:57:00,
2013-10-30 02:02:00,21.3,17.2,30.03,East,96,0.0,0.0,84,0.00,,,0.00,Wunderground v.1.15,2013-10-30 08:02:00,
2013-10-30 02:12:00,20.9,17.1,30.03,East,98,0.0,0.0,85,0.00,,,0.00,Wunderground v.1.15,2013-10-30 08:12:00,
2013-10-30 02:17:00,20.9,17.1,30.03,East,94,0.0,0.0,85,0.00,,,0.00,Wunderground v.1.15,2013-10-30 08:17:00,
2013-10-30 02:22:00,20.8,17.0,30.03,SE,124,0.0,0.0,85,0.00,,,0.00,Wunderground v.1.15,2013-10-30 08:22:00,
2013-10-30 02:27:00,21.0,17.5,30.03,ESE,113,0.0,0.0,86,0.00,,,0.00,Wunderground v.1.15,2013-10-30 08:27:00,
2013-10-30 02:32:00,21.0,17.5,30.03,WNW,300,0.0,2.0,86,0.00,,,0.00,Wunderground v.1.15,2013-10-30 08:32:00,
2013-10-30 02:37:00,20.9,17.4,30.03,WNW,298,0.0,2.0,86,0.00,,,0.00,Wunderground v.1.15,2013-10-30 08:37:00,
2013-10-30 02:42:00,20.8,17.3,30.03,WNW,297,0.0,0.0,86,0.00,,,0.00,Wunderground v.1.15,2013-10-30 08:42:00,
2013-10-30 02:52:00,20.8,17.3,30.03,East,95,0.0,0.0,86,0.00,,,0.00,Wunderground v.1.15,2013-10-30 08:52:00,
2013-10-30 02:57:00,20.8,17.5,30.03,East,101,0.0,0.0,87,0.00,,,0.00,Wunderground v.1.15,2013-10-30 08:57:00,
2013-10-30 03:02:00,20.9,17.6,30.03,East,100,0.0,0.0,87,0.00,,,0.00,Wunderground v.1.15,2013-10-30 09:02:00,
2013-10-30 03:07:00,21.1,17.8,30.03,East,98,0.0,0.0,87,0.00,,,0.00,Wunderground v.1.15,2013-10-30 09:07:00,
2013-10-30 03:12:00,21.0,17.7,30.03,East,98,0.0,0.0,87,0.00,,,0.00,Wunderground v.1.15,2013-10-30 09:12:00,
2013-10-30 03:17:00,20.9,17.4,30.03,NNW,333,0.0,0.0,86,0.00,,,0.00,Wunderground v.1.15,2013-10-30 09:17:00,
2013-10-30 03:22:00,20.7,17.2,30.04,NNW,333,0.0,0.0,86,0.00,,,0.00,Wunderground v.1.15,2013-10-30 09:22:00,
2013-10-30 03:31:00,21.0,17.7,30.03,ENE,69,1.0,1.0,87,0.00,,,0.00,Wunderground v.1.15,2013-10-30 09:31:00,
2013-10-30 03:37:00,21.1,17.8,30.04,ENE,67,0.0,1.0,87,0.00,,,0.00,Wunderground v.1.15,2013-10-30 09:37:00,
2013-10-30 03:42:00,21.1,17.8,30.03,ENE,67,0.0,0.0,87,0.00,,,0.00,Wunderground v.1.15,2013-10-30 09:42:00,
2013-10-30 03:47:00,20.8,17.3,30.03,ENE,66,0.0,0.0,86,0.00,,,0.00,Wunderground v.1.15,2013-10-30 09:47:00,
2013-10-30 03:52:00,20.7,17.4,30.03,ENE,67,0.0,0.0,87,0.00,,,0.00,Wunderground v.1.15,2013-10-30 09:52:00,
2013-10-30 03:57:00,20.5,17.2,30.03,South,183,0.0,0.0,87,0.00,,,0.00,Wunderground v.1.15,2013-10-30 09:57:00,
2013-10-30 04:07:00,20.3,17.3,30.03,South,183,0.0,0.0,88,0.00,,,0.00,Wunderground v.1.15,2013-10-30 10:07:00,
2013-10-30 04:17:00,20.2,17.2,30.03,South,181,0.0,0.0,88,0.00,,,0.00,Wunderground v.1.15,2013-10-30 10:17:00,
2013-10-30 04:22:00,20.4,17.4,30.03,South,179,0.0,0.0,88,0.00,,,0.00,Wunderground v.1.15,2013-10-30 10:22:00,
2013-10-30 04:27:00,20.6,17.6,30.03,SSE,153,0.0,0.0,88,0.00,,,0.00,Wunderground v.1.15,2013-10-30 10:27:00,
2013-10-30 04:32:00,20.5,17.2,30.03,South,174,0.0,0.0,87,0.00,,,0.00,Wunderground v.1.15,2013-10-30 10:32:00,
2013-10-30 04:37:00,20.4,17.1,30.03,South,176,0.0,0.0,87,0.00,,,0.00,Wunderground v.1.15,2013-10-30 10:37:00,
2013-10-30 04:42:00,20.5,17.5,30.03,ESE,106,0.0,0.0,88,0.00,,,0.00,Wunderground v.1.15,2013-10-30 10:42:00,
2013-10-30 04:52:00,20.9,17.9,30.03,ENE,73,0.0,0.0,88,0.00,,,0.00,Wunderground v.1.15,2013-10-30 10:52:00,
2013-10-30 04:57:00,21.2,17.9,30.03,ENE,74,0.0,0.0,87,0.00,,,0.00,Wunderground v.1.15,2013-10-30 10:57:00,
2013-10-30 05:02:00,21.3,18.0,30.03,ENE,74,0.0,0.0,87,0.00,,,0.00,Wunderground v.1.15,2013-10-30 11:02:00,
2013-10-30 05:07:00,21.3,18.0,30.03,ENE,74,0.0,0.0,87,0.00,,,0.00,Wunderground v.1.15,2013-10-30 11:07:00,
2013-10-30 05:12:00,21.5,18.2,30.03,ENE,74,0.0,1.0,87,0.00,,,0.00,Wunderground v.1.15,2013-10-30 11:12:00,
2013-10-30 05:17:00,21.5,18.0,30.03,ESE,104,0.0,1.0,86,0.00,,,0.00,Wunderground v.1.15,2013-10-30 11:17:00,
2013-10-30 05:22:00,21.5,18.0,30.03,East,88,0.0,1.0,86,0.00,,,0.00,Wunderground v.1.15,2013-10-30 11:22:00,
2013-10-30 05:32:00,21.8,18.3,30.03,NNE,22,0.0,0.0,86,0.00,,,0.00,Wunderground v.1.15,2013-10-30 11:32:00,
2013-10-30 05:37:00,22.0,18.2,30.03,NNE,19,0.0,1.0,85,0.00,,,0.00,Wunderground v.1.15,2013-10-30 11:37:00,
2013-10-30 05:42:00,22.0,18.2,30.03,NNE,31,0.0,0.0,85,0.00,,,0.00,Wunderground v.1.15,2013-10-30 11:42:00,
2013-10-30 05:47:00,22.0,18.2,30.03,NE,39,0.0,0.0,85,0.00,,,0.00,Wunderground v.1.15,2013-10-30 11:47:00,
2013-10-30 05:52:00,22.0,18.2,30.03,WNW,292,0.0,0.0,85,0.00,,,0.00,Wunderground v.1.15,2013-10-30 11:52:00,
2013-10-30 05:57:00,22.0,18.2,30.03,SE,133,0.0,1.0,85,0.00,,,0.00,Wunderground v.1.15,2013-10-30 11:57:00,
2013-10-30 06:06:00,21.7,17.9,30.03,SE,141,0.0,0.0,85,0.00,,,0.00,Wunderground v.1.15,2013-10-30 12:06:00,
2013-10-30 06:12:00,21.5,17.7,30.03,SE,141,0.0,0.0,85,0.00,,,0.00,Wunderground v.1.15,2013-10-30 12:12:00,
2013-10-30 06:17:00,21.7,17.9,30.03,SSE,160,0.0,0.0,85,0.00,,,0.00,Wunderground v.1.15,2013-10-30 12:17:00,
2013-10-30 06:22:00,21.7,18.2,30.03,SSE,161,0.0,0.0,86,0.00,,,0.00,Wunderground v.1.15,2013-10-30 12:22:00,
2013-10-30 06:27:00,21.7,17.9,30.03,SE,140,0.0,0.0,85,0.00,,,0.00,Wunderground v.1.15,2013-10-30 12:27:00,
2013-10-30 06:32:00,21.5,17.7,30.03,SE,140,0.0,0.0,85,0.00,,,0.00,Wunderground v.1.15,2013-10-30 12:32:00,
2013-10-30 06:37:00,21.3,17.8,30.03,SE,140,0.0,0.0,86,0.00,,,0.00,Wunderground v.1.15,2013-10-30 12:37:00,
2013-10-30 06:47:00,21.2,17.7,30.03,South,188,0.0,0.0,86,0.00,,,0.00,Wunderground v.1.15,2013-10-30 12:47:00,
2013-10-30 06:52:00,21.2,17.7,30.03,South,188,0.0,0.0,86,0.00,,,0.00,Wunderground v.1.15,2013-10-30 12:52:00,
2013-10-30 06:57:00,21.1,17.6,30.03,South,188,0.0,0.0,86,0.00,,,0.00,Wunderground v.1.15,2013-10-30 12:57:00,
2013-10-30 07:02:00,20.7,17.2,30.02,East,87,0.0,0.0,86,0.00,,,0.00,Wunderground v.1.15,2013-10-30 13:02:00,
2013-10-30 07:07:00,20.7,17.2,30.02,East,87,0.0,0.0,86,0.00,,,0.00,Wunderground v.1.15,2013-10-30 13:07:00,
2013-10-30 07:12:00,20.9,17.6,30.02,SE,131,0.0,1.0,87,0.00,,,0.00,Wunderground v.1.15,2013-10-30 13:12:00,
2013-10-30 07:17:00,21.2,17.9,30.02,SE,131,0.0,1.0,87,0.00,,,0.00,Wunderground v.1.15,2013-10-30 13:17:00,
2013-10-30 07:27:00,21.4,17.9,30.02,SE,134,0.0,0.0,86,0.00,,,0.00,Wunderground v.1.15,2013-10-30 13:27:00,
2013-10-30 07:32:00,21.2,17.7,30.02,SSE,156,0.0,0.0,86,0.00,,,0.00,Wunderground v.1.15,2013-10-30 13:32:00,
2013-10-30 07:37:00,21.1,17.6,30.03,SE,131,0.0,1.0,86,0.00,,,0.00,Wunderground v.1.15,2013-10-30 13:37:00,
2013-10-30 07:42:00,21.2,17.7,30.03,ENE,67,0.0,2.0,86,0.00,,,0.00,Wunderground v.1.15,2013-10-30 13:42:00,
2013-10-30 07:47:00,21.2,17.7,30.04,ENE,63,1.0,2.0,86,0.00,,,0.00,Wunderground v.1.15,2013-10-30 13:47:00,
2013-10-30 07:52:00,21.3,17.8,30.04,East,91,1.0,1.0,86,0.00,,,0.00,Wunderground v.1.15,2013-10-30 13:52:00,
2013-10-30 08:02:00,21.3,17.8,30.04,East,100,1.0,1.0,86,0.00,,,0.00,Wunderground v.1.15,2013-10-30 14:02:00,
2013-10-30 08:07:00,21.7,18.2,30.04,ENE,71,1.0,1.0,86,0.00,,,0.00,Wunderground v.1.15,2013-10-30 14:07:00,
2013-10-30 08:12:00,21.9,18.1,30.04,ENE,62,1.0,1.0,85,0.00,,,0.00,Wunderground v.1.15,2013-10-30 14:12:00,
2013-10-30 08:17:00,22.2,18.4,30.04,ENE,58,0.0,1.0,85,0.00,,,0.00,Wunderground v.1.15,2013-10-30 14:17:00,
2013-10-30 08:22:00,22.4,18.6,30.05,NE,55,0.0,0.0,85,0.00,,,0.00,Wunderground v.1.15,2013-10-30 14:22:00,
2013-10-30 08:27:00,22.3,18.5,30.04,NE,49,0.0,0.0,85,0.00,,,0.00,Wunderground v.1.15,2013-10-30 14:27:00,
2013-10-30 08:32:00,22.7,18.9,30.05,ENE,67,0.0,0.0,85,0.00,,,0.00,Wunderground v.1.15,2013-10-30 14:32:00,
2013-10-30 08:42:00,23.9,19.5,30.05,NE,56,0.0,0.0,83,0.00,,,0.00,Wunderground v.1.15,2013-10-30 14:42:00,
2013-10-30 08:47:00,24.2,19.8,30.05,NE,56,1.0,2.0,83,0.00,,,0.00,Wunderground v.1.15,2013-10-30 14:47:00,
2013-10-30 08:52:00,24.3,19.6,30.05,NE,54,1.0,1.0,82,0.00,,,0.00,Wunderground v.1.15,2013-10-30 14:52:00,
2013-10-30 08:57:00,24.4,20.0,30.05,ENE,57,1.0,1.0,83,0.00,,,0.00,Wunderground v.1.15,2013-10-30 14:57:00,
2013-10-30 09:02:00,24.8,20.1,30.05,NE,46,1.0,1.0,82,0.00,,,0.00,Wunderground v.1.15,2013-10-30 15:02:00,
2013-10-30 09:07:00,24.9,20.2,30.05,ENE,64,1.0,2.0,82,0.00,,,0.00,Wunderground v.1.15,2013-10-30 15:07:00,
2013-10-30 09:12:00,24.9,20.2,30.05,ENE,69,1.0,1.0,82,0.00,,,0.00,Wunderground v.1.15,2013-10-30 15:12:00,
2013-10-30 09:21:00,25.3,20.3,30.06,ENE,60,1.0,1.0,81,0.00,,,0.00,Wunderground v.1.15,2013-10-30 15:21:00,
2013-10-30 09:27:00,25.5,20.5,30.06,ENE,61,1.0,1.0,81,0.00,,,0.00,Wunderground v.1.15,2013-10-30 15:27:00,
2013-10-30 09:32:00,25.6,20.6,30.06,NE,52,1.0,1.0,81,0.00,,,0.00,Wunderground v.1.15,2013-10-30 15:32:00,
2013-10-30 09:37:00,25.6,20.6,30.06,East,82,0.0,1.0,81,0.00,,,0.00,Wunderground v.1.15,2013-10-30 15:37:00,
2013-10-30 09:42:00,25.8,20.8,30.06,ENE,68,0.0,0.0,81,0.00,,,0.00,Wunderground v.1.15,2013-10-30 15:42:00,
2013-10-30 09:47:00,26.0,21.3,30.06,ENE,77,0.0,0.0,82,0.00,,,0.00,Wunderground v.1.15,2013-10-30 15:47:00,
2013-10-30 09:57:00,26.3,21.3,30.06,NE,49,0.0,0.0,81,0.00,,,0.00,Wunderground v.1.15,2013-10-30 15:57:00,
2013-10-30 10:07:00,26.9,21.8,30.06,NE,46,1.0,1.0,81,0.00,,,0.00,Wunderground v.1.15,2013-10-30 16:07:00,
2013-10-30 10:12:00,27.3,21.9,30.06,NE,38,1.0,3.0,80,0.00,,,0.00,Wunderground v.1.15,2013-10-30 16:12:00,
2013-10-30 10:17:00,27.7,22.3,30.06,ENE,57,1.0,3.0,80,0.00,,,0.00,Wunderground v.1.15,2013-10-30 16:17:00,
2013-10-30 10:22:00,28.1,22.4,30.06,NE,51,1.0,1.0,79,0.00,,,0.00,Wunderground v.1.15,2013-10-30 16:22:00,
2013-10-30 10:27:00,28.3,22.3,30.06,ENE,66,1.0,1.0,78,0.00,,,0.00,Wunderground v.1.15,2013-10-30 16:27:00,
2013-10-30 10:32:00,28.4,22.4,30.06,East,82,1.0,1.0,78,0.00,,,0.00,Wunderground v.1.15,2013-10-30 16:32:00,
2013-10-30 10:42:00,28.8,21.9,30.06,NNE,33,1.0,2.0,75,0.00,,,0.00,Wunderground v.1.15,2013-10-30 16:42:00,
2013-10-30 10:47:00,29.0,22.1,30.05,NE,49,2.0,4.0,75,0.00,,,0.00,Wunderground v.1.15,2013-10-30 16:47:00,
2013-10-30 10:52:00,29.3,22.0,30.05,NE,51,2.0,2.0,74,0.00,,,0.00,Wunderground v.1.15,2013-10-30 16:52:00,
2013-10-30 10:57:00,29.8,22.2,30.05,NE,45,2.0,2.0,73,0.00,,,0.00,Wunderground v.1.15,2013-10-30 16:57:00,
2013-10-30 11:02:00,30.1,22.5,30.05,NE,46,1.0,2.0,73,0.00,,,0.00,Wunderground v.1.15,2013-10-30 17:02:00,
2013-10-30 11:07:00,31.1,23.1,30.05,ENE,58,1.0,2.0,72,0.00,,,0.00,Wunderground v.1.15,2013-10-30 17:07:00,
2013-10-30 11:12:00,31.4,22.7,30.05,ESE,110,1.0,1.0,70,0.00,,,0.00,Wunderground v.1.15,2013-10-30 17:12:00,
2013-10-30 11:22:00,32.2,22.8,30.05,NE,40,1.0,3.0,68,0.00,,,0.00,Wunderground v.1.15,2013-10-30 17:22:00,
2013-10-30 11:27:00,32.3,23.3,30.05,ENE,63,1.0,3.0,69,0.00,,,0.00,Wunderground v.1.15,2013-10-30 17:27:00,
2013-10-30 11:32:00,32.7,23.3,30.05,East,80,2.0,2.0,68,0.00,,,0.00,Wunderground v.1.15,2013-10-30 17:32:00,
2013-10-30 11:37:00,32.8,23.4,30.04,ENE,70,2.0,2.0,68,0.00,,,0.00,Wunderground v.1.15,2013-10-30 17:37:00,
2013-10-30 11:42:00,32.7,22.9,30.04,ENE,59,2.0,2.0,67,0.00,,,0.00,Wunderground v.1.15,2013-10-30 17:42:00,
2013-10-30 11:47:00,33.3,23.5,30.04,NE,50,2.0,3.0,67,0.00,,,0.00,Wunderground v.1.15,2013-10-30 17:47:00,
2013-10-30 11:56:00,33.9,24.1,30.04,NE,50,2.0,2.0,67,0.00,,,0.00,Wunderground v.1.15,2013-10-30 17:56:00,
2013-10-30 12:02:00,33.7,23.5,30.04,East,83,2.0,2.0,66,0.00,,,0.00,Wunderground v.1.15,2013-10-30 18:02:00,
2013-10-30 12:07:00,34.4,24.6,30.03,ENE,59,2.0,2.0,67,0.00,,,0.00,Wunderground v.1.15,2013-10-30 18:07:00,
2013-10-30 12:12:00,34.4,24.2,30.03,East,79,2.0,2.0,66,0.00,,,0.00,Wunderground v.1.15,2013-10-30 18:12:00,
2013-10-30 12:17:00,35.3,25.1,30.03,NE,36,2.0,3.0,66,0.00,,,0.00,Wunderground v.1.15,2013-10-30 18:17:00,
2013-10-30 12:22:00,35.3,24.3,30.03,East,92,2.0,2.0,64,0.00,,,0.00,Wunderground v.1.15,2013-10-30 18:22:00,
2013-10-30 12:27:00,35.3,24.7,30.02,ENE,62,2.0,6.0,65,0.00,,,0.00,Wunderground v.1.15,2013-10-30 18:27:00,
2013-10-30 12:37:00,36.1,25.8,30.02,East,97,4.0,5.0,66,0.00,,,0.00,Wunderground v.1.15,2013-10-30 18:37:00,
2013-10-30 12:42:00,36.5,26.2,30.01,NE,54,4.0,5.0,66,0.00,,,0.00,Wunderground v.1.15,2013-10-30 18:42:00,
2013-10-30 12:47:00,36.6,25.6,30.01,ENE,68,4.0,5.0,64,0.00,,,0.00,Wunderground v.1.15,2013-10-30 18:47:00,
2013-10-30 12:52:00,36.8,25.4,30.01,ESE,121,4.0,4.0,63,0.00,,,0.00,Wunderground v.1.15,2013-10-30 18:52:00,
2013-10-30 12:57:00,37.5,25.7,30.01,SSE,158,4.0,4.0,62,0.00,,,0.00,Wunderground v.1.15,2013-10-30 18:57:00,
2013-10-30 13:02:00,38.2,25.9,30.01,ESE,106,3.0,3.0,61,0.00,,,0.00,Wunderground v.1.15,2013-10-30 19:02:00,
2013-10-30 13:07:00,40.1,26.1,30.00,WNW,300,4.0,9.0,57,0.00,,,0.00,Wunderground v.1.15,2013-10-30 19:07:00,
2013-10-30 13:17:00,41.7,25.4,30.00,NW,305,6.0,10.0,52,0.00,,,0.00,Wunderground v.1.15,2013-10-30 19:17:00,
2013-10-30 13:22:00,42.1,25.3,30.00,WNW,300,8.0,10.0,51,0.00,,,0.00,Wunderground v.1.15,2013-10-30 19:22:00,
2013-10-30 13:27:00,42.2,24.9,30.00,NW,308,8.0,11.0,50,0.00,,,0.00,Wunderground v.1.15,2013-10-30 19:27:00,
2013-10-30 13:32:00,42.1,24.8,29.99,WNW,290,8.0,8.0,50,0.00,,,0.00,Wunderground v.1.15,2013-10-30 19:32:00,
2013-10-30 13:37:00,42.3,25.0,29.99,WNW,302,8.0,8.0,50,0.00,,,0.00,Wunderground v.1.15,2013-10-30 19:37:00,
2013-10-30 13:42:00,42.4,25.1,29.99,WNW,302,8.0,9.0,50,0.00,,,0.00,Wunderground v.1.15,2013-10-30 19:42:00,
2013-10-30 13:51:00,42.5,24.7,29.98,WNW,293,8.0,10.0,49,0.00,,,0.00,Wunderground v.1.15,2013-10-30 19:51:00,
2013-10-30 13:56:00,42.5,24.7,29.98,NW,306,8.0,10.0,49,0.00,,,0.00,Wunderground v.1.15,2013-10-30 19:56:00,
2013-10-30 14:02:00,42.6,25.2,29.98,NW,304,7.0,8.0,50,0.00,,,0.00,Wunderground v.1.15,2013-10-30 20:02:00,
2013-10-30 14:07:00,42.7,24.8,29.97,WNW,293,8.0,8.0,49,0.00,,,0.00,Wunderground v.1.15,2013-10-30 20:07:00,
2013-10-30 14:12:00,42.8,24.4,29.97,WNW,290,8.0,14.0,48,0.00,,,0.00,Wunderground v.1.15,2013-10-30 20:12:00,
2013-10-30 14:17:00,43.0,24.6,29.97,WNW,293,8.0,14.0,48,0.00,,,0.00,Wunderground v.1.15,2013-10-30 20:17:00,
2013-10-30 14:22:00,43.1,24.7,29.97,WNW,295,8.0,9.0,48,0.00,,,0.00,Wunderground v.1.15,2013-10-30 20:22:00,
2013-10-30 14:31:00,43.1,24.7,29.97,WNW,292,9.0,9.0,48,0.00,,,0.00,Wunderground v.1.15,2013-10-30 20:31:00,
2013-10-30 14:37:00,43.1,24.7,29.97,NW,307,8.0,9.0,48,0.00,,,0.00,Wunderground v.1.15,2013-10-30 20:37:00,
2013-10-30 14:42:00,43.0,24.6,29.98,NW,316,9.0,9.0,48,0.00,,,0.00,Wunderground v.1.15,2013-10-30 20:42:00,
2013-10-30 14:47:00,43.3,24.4,29.98,West,272,9.0,13.0,47,0.00,,,0.01,Wunderground v.1.15,2013-10-30 20:47:00,
2013-10-30 14:52:00,43.3,24.4,29.98,NW,316,9.0,9.0,47,0.00,,,0.01,Wunderground v.1.15,2013-10-30 20:52:00,
2013-10-30 14:57:00,43.1,23.7,29.98,NW,309,10.0,10.0,46,0.00,,,0.01,Wunderground v.1.15,2013-10-30 20:57:00,
2013-10-30 15:02:00,43.3,24.4,29.97,WNW,293,9.0,10.0,47,0.00,,,0.01,Wunderground v.1.15,2013-10-30 21:02:00,
2013-10-30 15:07:00,43.1,24.2,29.97,West,276,9.0,12.0,47,0.00,,,0.01,Wunderground v.1.15,2013-10-30 21:07:00,
2013-10-30 15:17:00,43.1,24.2,29.97,WNW,283,10.0,10.0,47,0.00,,,0.01,Wunderground v.1.15,2013-10-30 21:17:00,
2013-10-30 15:22:00,42.9,24.0,29.97,NW,313,11.0,11.0,47,0.00,,,0.01,Wunderground v.1.15,2013-10-30 21:22:00,
2013-10-30 15:27:00,42.9,24.0,29.97,WNW,293,10.0,11.0,47,0.00,,,0.01,Wunderground v.1.15,2013-10-30 21:27:00,
2013-10-30 15:32:00,42.8,23.9,29.96,NW,304,9.0,9.0,47,0.00,,,0.01,Wunderground v.1.15,2013-10-30 21:32:00,
2013-10-30 15:37:00,43.3,24.4,29.97,WNW,301,8.0,11.0,47,0.00,,,0.01,Wunderground v.1.15,2013-10-30 21:37:00,
2013-10-30 15:42:00,43.2,23.8,29.97,WSW,238,8.0,14.0,46,0.00,,,0.01,Wunderground v.1.15,2013-10-30 21:42:00,
2013-10-30 15:51:00,43.3,24.4,29.97,WNW,288,8.0,10.0,47,0.00,,,0.01,Wunderground v.1.15,2013-10-30 21:51:00,
2013-10-30 15:57:00,43.5,24.1,29.97,West,273,6.0,10.0,46,0.00,,,0.01,Wunderground v.1.15,2013-10-30 21:57:00,
2013-10-30 16:02:00,43.2,23.3,29.97,WSW,257,7.0,9.0,45,0.00,,,0.01,Wunderground v.1.15,2013-10-30 22:02:00,
2013-10-30 16:07:00,42.9,23.5,29.97,West,266,8.0,9.0,46,0.00,,,0.01,Wunderground v.1.15,2013-10-30 22:07:00,
2013-10-30 16:12:00,43.0,23.6,29.97,WSW,243,8.0,10.0,46,0.00,,,0.01,Wunderground v.1.15,2013-10-30 22:12:00,
2013-10-30 16:17:00,43.2,23.8,29.98,WNW,290,8.0,10.0,46,0.00,,,0.01,Wunderground v.1.15,2013-10-30 22:17:00,
2013-10-30 16:22:00,43.2,23.3,29.98,WNW,295,7.0,7.0,45,0.00,,,0.01,Wunderground v.1.15,2013-10-30 22:22:00,
2013-10-30 16:32:00,43.3,23.9,29.98,NW,311,7.0,7.0,46,0.00,,,0.01,Wunderground v.1.15,2013-10-30 22:32:00,
2013-10-30 16:37:00,43.1,23.2,29.98,West,277,6.0,7.0,45,0.00,,,0.01,Wunderground v.1.15,2013-10-30 22:37:00,
2013-10-30 16:42:00,43.2,23.8,29.98,WNW,295,6.0,6.0,46,0.00,,,0.01,Wunderground v.1.15,2013-10-30 22:42:00,
2013-10-30 16:47:00,43.1,23.2,29.98,WNW,285,5.0,6.0,45,0.00,,,0.01,Wunderground v.1.15,2013-10-30 22:47:00,
2013-10-30 16:52:00,42.9,23.5,29.98,West,277,6.0,6.0,46,0.00,,,0.01,Wunderground v.1.15,2013-10-30 22:52:00,
2013-10-30 16:57:00,42.9,23.5,29.98,NW,311,6.0,8.0,46,0.00,,,0.01,Wunderground v.1.15,2013-10-30 22:57:00,
2013-10-30 17:02:00,42.6,23.2,29.99,WSW,248,7.0,7.0,46,0.00,,,0.01,Wunderground v.1.15,2013-10-30 23:02:00,
2013-10-30 17:12:00,42.5,23.2,29.99,WSW,239,7.0,11.0,46,0.00,,,0.01,Wunderground v.1.15,2013-10-30 23:12:00,
2013-10-30 17:17:00,42.4,23.6,29.99,NW,304,6.0,11.0,47,0.00,,,0.01,Wunderground v.1.15,2013-10-30 23:17:00,
2013-10-30 17:22:00,42.5,23.2,29.99,WSW,243,4.0,4.0,46,0.00,,,0.01,Wunderground v.1.15,2013-10-30 23:22:00,
2013-10-30 17:27:00,42.5,23.2,29.99,West,269,3.0,4.0,46,0.00,,,0.01,Wunderground v.1.15,2013-10-30 23:27:00,
2013-10-30 17:32:00,41.9,23.1,29.99,WNW,290,3.0,3.0,47,0.00,,,0.01,Wunderground v.1.15,2013-10-30 23:32:00,
2013-10-30 17:37:00,41.3,23.1,29.99,WNW,288,4.0,4.0,48,0.00,,,0.01,Wunderground v.1.15,2013-10-30 23:37:00,
2013-10-30 17:46:00,40.6,23.4,29.99,West,264,3.0,4.0,50,0.00,,,0.01,Wunderground v.1.15,2013-10-30 23:46:00,
2013-10-30 17:52:00,40.2,23.0,29.99,NW,326,3.0,4.0,50,0.00,,,0.01,Wunderground v.1.15,2013-10-30 23:52:00,
2013-10-30 17:57:00,40.0,22.8,29.99,WNW,283,4.0,4.0,50,0.00,,,0.01,Wunderground v.1.15,2013-10-30 23:57:00,
2013-10-30 18:02:00,39.8,23.1,29.99,West,262,4.0,4.0,51,0.00,,,0.01,Wunderground v.1.15,2013-10-31 00:02:00,
2013-10-30 18:07:00,39.6,22.9,29.99,West,271,4.0,4.0,51,0.00,,,0.01,Wunderground v.1.15,2013-10-31 00:07:00,
2013-10-30 18:12:00,39.6,22.5,30.00,WNW,290,5.0,5.0,50,0.00,,,0.01,Wunderground v.1.15,2013-10-31 00:12:00,
2013-10-30 18:17:00,39.6,22.5,30.00,West,276,4.0,5.0,50,0.00,,,0.01,Wunderground v.1.15,2013-10-31 00:17:00,
2013-10-30 18:27:00,39.3,22.7,30.00,WNW,294,2.0,3.0,51,0.00,,,0.01,Wunderground v.1.15,2013-10-31 00:27:00,
2013-10-30 18:32:00,39.0,23.3,30.00,WNW,302,2.0,2.0,53,0.00,,,0.01,Wunderground v.1.15,2013-10-31 00:32:00,
2013-10-30 18:37:00,38.8,23.1,30.00,WNW,293,2.0,8.0,53,0.00,,,0.01,Wunderground v.1.15,2013-10-31 00:37:00,
2013-10-30 18:42:00,38.8,23.1,30.01,WNW,290,3.0,3.0,53,0.00,,,0.01,Wunderground v.1.15,2013-10-31 00:42:00,
2013-10-30 18:47:00,38.9,23.2,30.01,WNW,300,3.0,5.0,53,0.00,,,0.01,Wunderground v.1.15,2013-10-31 00:47:00,
2013-10-30 18:52:00,39.0,23.3,30.01,NW,321,3.0,3.0,53,0.00,,,0.01,Wunderground v.1.15,2013-10-31 00:52:00,
2013-10-30 18:57:00,39.0,23.3,30.01,WNW,295,2.0,3.0,53,0.00,,,0.01,Wunderground v.1.15,2013-10-31 00:57:00,
2013-10-30 19:07:00,39.3,23.1,30.01,WSW,239,2.0,4.0,52,0.00,,,0.01,Wunderground v.1.15,2013-10-31 01:07:00,
2013-10-30 19:12:00,39.3,22.7,30.02,WNW,296,3.0,4.0,51,0.00,,,0.01,Wunderground v.1.15,2013-10-31 01:12:00,
2013-10-30 19:17:00,39.3,23.1,30.01,WNW,297,3.0,4.0,52,0.00,,,0.01,Wunderground v.1.15,2013-10-31 01:17:00,
2013-10-30 19:22:00,39.2,22.6,30.01,West,260,3.0,3.0,51,0.00,,,0.01,Wunderground v.1.15,2013-10-31 01:22:00,
2013-10-30 19:27:00,39.1,22.5,30.01,West,262,3.0,6.0,51,0.00,,,0.01,Wunderground v.1.15,2013-10-31 01:27:00,
2013-10-30 19:32:00,39.0,22.4,30.01,West,266,3.0,3.0,51,0.00,,,0.01,Wunderground v.1.15,2013-10-31 01:32:00,
2013-10-30 19:41:00,39.1,22.5,30.01,WNW,302,4.0,4.0,51,0.00,,,0.01,Wunderground v.1.15,2013-10-31 01:41:00,
2013-10-30 19:46:00,39.0,22.4,30.02,NW,307,4.0,4.0,51,0.00,,,0.01,Wunderground v.1.15,2013-10-31 01:46:00,
2013-10-30 19:52:00,38.9,22.3,30.02,WNW,294,3.0,3.0,51,0.00,,,0.01,Wunderground v.1.15,2013-10-31 01:52:00,
2013-10-30 19:57:00,38.8,22.7,30.02,NW,307,4.0,5.0,52,0.00,,,0.01,Wunderground v.1.15,2013-10-31 01:57:00,
2013-10-30 20:02:00,38.7,22.6,30.02,NW,307,3.0,6.0,52,0.00,,,0.01,Wunderground v.1.15,2013-10-31 02:02:00,
2013-10-30 20:07:00,38.7,23.0,30.02,WNW,302,4.0,6.0,53,0.00,,,0.01,Wunderground v.1.15,2013-10-31 02:07:00,
2013-10-30 20:12:00,38.6,22.9,30.02,WNW,296,4.0,5.0,53,0.00,,,0.01,Wunderground v.1.15,2013-10-31 02:12:00,
2013-10-30 20:21:00,38.8,22.2,30.02,WNW,302,4.0,4.0,51,0.00,,,0.01,Wunderground v.1.15,2013-10-31 02:21:00,
2013-10-30 20:26:00,38.9,22.8,30.02,WNW,288,4.0,4.0,52,0.00,,,0.01,Wunderground v.1.15,2013-10-31 02:26:00,
2013-10-30 20:32:00,38.9,22.8,30.02,West,262,4.0,4.0,52,0.00,,,0.01,Wunderground v.1.15,2013-10-31 02:32:00,
2013-10-30 20:37:00,38.9,22.8,30.02,NW,307,3.0,4.0,52,0.00,,,0.01,Wunderground v.1.15,2013-10-31 02:37:00,
2013-10-30 20:42:00,38.9,22.3,30.02,WNW,297,3.0,7.0,51,0.00,,,0.01,Wunderground v.1.15,2013-10-31 02:42:00,
2013-10-30 20:47:00,38.9,22.8,30.02,NW,304,4.0,7.0,52,0.00,,,0.01,Wunderground v.1.15,2013-10-31 02:47:00,
2013-10-30 20:52:00,39.0,22.4,30.02,NW,315,4.0,4.0,51,0.00,,,0.01,Wunderground v.1.15,2013-10-31 02:52:00,
2013-10-30 20:57:00,39.1,22.5,30.02,WNW,297,4.0,8.0,51,0.00,,,0.01,Wunderground v.1.15,2013-10-31 02:57:00,
2013-10-30 21:07:00,39.3,22.2,30.02,NW,311,5.0,5.0,50,0.00,,,0.01,Wunderground v.1.15,2013-10-31 03:07:00,
2013-10-30 21:12:00,39.3,22.2,30.02,West,275,6.0,6.0,50,0.00,,,0.01,Wunderground v.1.15,2013-10-31 03:12:00,
2013-10-30 21:17:00,39.3,22.2,30.02,NW,315,6.0,6.0,50,0.00,,,0.01,Wunderground v.1.15,2013-10-31 03:17:00,
2013-10-30 21:22:00,39.1,22.5,30.02,NW,308,5.0,5.0,51,0.00,,,0.01,Wunderground v.1.15,2013-10-31 03:22:00,
2013-10-30 21:27:00,39.1,22.5,30.02,NW,316,5.0,5.0,51,0.00,,,0.01,Wunderground v.1.15,2013-10-31 03:27:00,
2013-10-30 21:32:00,39.2,22.1,30.02,WSW,257,6.0,6.0,50,0.00,,,0.01,Wunderground v.1.15,2013-10-31 03:32:00,
2013-10-30 21:41:00,39.1,22.5,30.01,West,281,5.0,5.0,51,0.00,,,0.01,Wunderground v.1.15,2013-10-31 03:41:00,
2013-10-30 21:47:00,39.1,22.5,30.01,West,271,6.0,6.0,51,0.00,,,0.01,Wunderground v.1.15,2013-10-31 03:47:00,
2013-10-30 21:52:00,39.1,22.5,30.02,West,278,6.0,6.0,51,0.00,,,0.01,Wunderground v.1.15,2013-10-31 03:52:00,
2013-10-30 21:57:00,39.0,22.4,30.02,NW,319,6.0,6.0,51,0.00,,,0.01,Wunderground v.1.15,2013-10-31 03:57:00,
2013-10-30 22:02:00,38.9,22.8,30.02,NW,311,6.0,6.0,52,0.00,,,0.01,Wunderground v.1.15,2013-10-31 04:02:00,
2013-10-30 22:07:00,38.8,22.7,30.02,NW,313,6.0,6.0,52,0.00,,,0.01,Wunderground v.1.15,2013-10-31 04:07:00,
2013-10-30 22:12:00,38.7,22.6,30.02,NW,306,7.0,10.0,52,0.00,,,0.01,Wunderground v.1.15,2013-10-31 04:12:00,
2013-10-30 22:16:00,38.7,22.6,30.02,NW,319,6.0,10.0,52,0.00,,,0.01,Wunderground v.1.15,2013-10-31 04:16:00,
2013-10-30 22:21:00,38.5,22.8,30.02,WNW,288,5.0,5.0,53,0.00,,,0.01,Wunderground v.1.15,2013-10-31 04:21:00,
2013-10-30 22:27:00,38.5,22.8,30.02,NW,311,4.0,5.0,53,0.00,,,0.01,Wunderground v.1.15,2013-10-31 04:27:00,
2013-10-30 22:32:00,38.5,22.8,30.02,NNW,348,3.0,3.0,53,0.00,,,0.01,Wunderground v.1.15,2013-10-31 04:32:00,
2013-10-30 22:37:00,38.5,22.4,30.02,NW,321,3.0,3.0,52,0.00,,,0.01,Wunderground v.1.15,2013-10-31 04:37:00,
2013-10-30 22:42:00,38.5,22.4,30.02,North,352,2.0,2.0,52,0.00,,,0.01,Wunderground v.1.15,2013-10-31 04:42:00,
2013-10-30 22:47:00,38.6,22.5,30.02,WNW,287,2.0,2.0,52,0.00,,,0.01,Wunderground v.1.15,2013-10-31 04:47:00,
2013-10-30 22:52:00,38.7,22.6,30.02,West,278,4.0,4.0,52,0.00,,,0.01,Wunderground v.1.15,2013-10-31 04:52:00,
2013-10-30 23:02:00,38.7,22.6,30.02,WNW,291,4.0,4.0,52,0.00,,,0.01,Wunderground v.1.15,2013-10-31 05:02:00,
2013-10-30 23:07:00,38.5,22.4,30.02,WNW,291,3.0,6.0,52,0.00,,,0.01,Wunderground v.1.15,2013-10-31 05:07:00,
2013-10-30 23:12:00,38.5,22.4,30.02,NNW,329,3.0,3.0,52,0.00,,,0.01,Wunderground v.1.15,2013-10-31 05:12:00,
2013-10-30 23:17:00,38.4,22.3,30.02,WNW,293,4.0,4.0,52,0.00,,,0.01,Wunderground v.1.15,2013-10-31 05:17:00,
2013-10-30 23:22:00,38.4,22.3,30.02,NNW,328,4.0,4.0,52,0.00,,,0.01,Wunderground v.1.15,2013-10-31 05:22:00,
2013-10-30 23:27:00,38.3,22.2,30.02,WNW,295,4.0,4.0,52,0.00,,,0.01,Wunderground v.1.15,2013-10-31 05:27:00,
2013-10-30 23:36:00,38.2,22.1,30.02,West,278,3.0,7.0,52,0.00,,,0.01,Wunderground v.1.15,2013-10-31 05:36:00,
2013-10-30 23:42:00,38.1,22.0,30.02,West,281,3.0,3.0,52,0.00,,,0.01,Wunderground v.1.15,2013-10-31 05:42:00,
2013-10-30 23:47:00,38.1,22.5,30.02,WNW,287,3.0,3.0,53,0.00,,,0.01,Wunderground v.1.15,2013-10-31 05:47:00,
2013-10-30 23:52:00,37.9,22.3,30.02,NW,311,2.0,2.0,53,0.00,,,0.01,Wunderground v.1.15,2013-10-31 05:52:00,
2013-10-30 23:57:00,37.8,22.2,30.01,SW,229,3.0,3.0,53,0.00,,,0.01,Wunderground v.1.15,2013-10-31 05:57:00,